SCP
0 0 0 0 0 0 0 0 0 0 0 0 0 0 0 0 0 0 0 0 0 0 0 0 0 0 0 0 0 0 0 0
0 0 0 0 0 0 0 0 0 0 0 0 0 0 0 0 0 0 0 0 0 0 0 0 0 0 0 0 0 0 0 0
0 0 0 0 0 0 0 0 0 0 0 0 0 0 0 0 0 0 0 0 0 0 0 0 0 0 0 0 0 0 0 0
0 0 0 0 0 0 0 0 0 0 0 0 0 0 0 0 0 0 0 0 0 0 0 0 0 0 0 0 0 0 0 0
0 0 0 0 0 0 0 0 0 0 0 0 0 0 0 0 0 0 0 0 0 0 0 0 0 0 0 0 0 0 0 0
0 0 0 0 0 0 0 0 0 0 0 0 0 0 0 0 0 0 0 0 0 0 0 0 0 0 0 0 0 0 0 0
0 0 0 0 0 0 0 0 0 0 0 0 0 0 0 0 0 0 0 0 0 0 0 0 0 0 0 0 0 0 0 0
0 0 0 0 0 0 0 0 0 0 0 0 0 0 0 0 0 0 0 0 0 0 0 0 0 0 0 0 0 0 0 0
0 0 0 0 0 0 0 0 0 0 0 0 0 0 0 0 0 0 0 0 0 0 0 0 0 0 0 0 0 0 0 0
0 0 0 0 0 0 0 0 0 0 0 0 0 0 0 0 0 0 0 0 0 0 0 0 0 -0 -0 0 0 0 0 0
0 0 0 0 0 0 0 0 0 0 0 0 0 0 0 0 0 0 0 0 0 0 0 0 0 -0 0 0 0 0 0 0
0 0 0 0 0 0 0 0 0 0 0 0 0 0 0 0 0 0 0 0 0 0 0 0 0 0 -0 0 0 0 0 0
0 0 0 0 0 0 0 0 0 0 0 0 0 0 0 0 0 0 0 0 0 0 0 0 0 0 0 -0 -0 0 0 -0
0 0 0 0 0 0 0 0 0 0 0 0 0 0 0 0 0 0 0 0 0 0 0 0 0 0 -0 -0 -0 0 0 0
0 0 0 0 0 0 0 0 0 0 0 0 0 0 0 0 0 0 0 0 0 0 0 0 0 0 0 -0 0 0 0 -0
0 0 0 0 0 0 0 0 0 0 0 0 0 0 0 0 0 0 0 0 0 0 0 0 0 0 -0 -0 -0 0 0 0
0 0 0 0 0 0 0 0 0 0 0 0 0 0 0 0 0 0 0 0 0 0 0 0 0 -0 -0 -0 -0 -0 -0 0
0 0 0 0 0 0 0 0 0 0 0 0 0 0 0 0 0 0 0 0 0 0 0 0 0 -0 -0 -0 0 -0 -0 0
0 0 0 0 0 0 0 0 0 0 0 0 0 0 0 0 -0 0 0 0 0 0 0 0 0 -0 -0 -0 0 0 -0 -0
0 0 0 0 0 0 0 0 0 0 0 0 0 0 0 0 0 0 0 0 0 0 0 0 0 -0 -0 -0 -0 0 -0 -0
Wind_Speed_500mb
50 56 67 79 91 82 75 66 53 42 37 35 38 44 49 53 58 66 72 76 80 82 83 85 88 89 93 99 102 101 106 92
52 55 65 79 91 86 75 63 49 40 35 36 38 42 47 53 61 67 74 78 81 83 84 87 90 92 98 101 102 102 96 86
53 58 67 81 95 89 73 60 50 41 36 37 38 42 47 54 62 69 77 80 81 83 85 86 89 95 100 104 103 96 90 83
60 67 75 88 97 87 74 62 51 41 36 35 39 43 48 55 62 68 75 78 78 82 85 86 89 97 98 99 100 93 84 82
68 72 75 90 99 85 72 58 48 40 35 34 38 43 50 58 63 68 72 76 79 81 85 85 89 93 95 89 83 82 80 78
73 73 79 87 92 82 69 57 45 36 32 33 36 44 53 59 64 67 70 74 77 83 85 85 88 92 83 75 81 84 85 82
70 70 77 82 97 84 69 55 43 34 30 32 37 45 52 57 61 66 71 73 75 79 83 85 86 83 67 69 78 80 81 82
67 68 72 80 97 82 65 51 38 29 26 30 38 44 49 54 59 62 68 72 75 78 80 83 82 75 66 67 71 74 76 76
56 59 65 72 90 76 61 46 33 25 23 28 37 42 47 51 55 59 65 69 74 76 77 80 79 72 67 69 72 76 77 74
55 61 67 76 86 69 53 39 28 21 21 28 34 38 45 48 52 56 63 67 71 75 76 79 86 73 69 71 75 70 72 70
56 60 65 85 77 61 46 35 25 16 19 26 30 36 42 48 51 54 58 65 72 77 75 83 86 75 69 68 79 79 79 78
58 69 84 82 68 54 43 32 19 12 17 22 27 34 41 42 49 56 55 60 69 78 83 84 79 83 62 74 74 78 79 81
71 85 87 76 64 52 40 26 13 12 16 18 24 31 37 42 47 51 56 63 73 78 83 86 82 72 72 77 72 74 82 85
84 93 85 74 63 55 43 28 16 13 12 14 20 27 33 38 45 49 53 61 72 76 84 91 94 80 82 84 83 81 77 72
96 94 86 73 63 49 37 27 19 12 8 11 14 19 27 36 42 45 52 59 66 72 77 83 88 95 96 97 99 81 75 74
98 92 82 72 59 48 36 25 17 11 6 8 14 19 25 32 37 42 43 43 49 57 61 80 86 87 82 82 81 68 74 57
100 88 75 68 58 44 33 22 15 9 4 4 13 21 25 23 22 32 38 41 41 42 48 60 61 71 74 74 64 59 61 52
95 77 67 62 52 41 29 18 13 9 4 3 10 17 21 27 32 35 28 37 42 44 50 52 58 67 71 72 60 59 65 77
96 83 76 62 50 42 30 21 14 10 3 3 8 13 18 23 30 36 41 44 41 43 55 63 65 66 69 80 81 87 88 88
88 82 76 69 58 45 35 25 18 11 4 4 7 10 14 21 27 31 34 37 43 44 47 61 62 71 78 86 96 98 96 93
Wind_Direction_500mb
240 240 238 228 223 224 226 230 235 246 261 276 290 299 307 313 316 314 315 317 316 317 314 312 310 309 307 305 303 300 297 287
242 247 237 226 221 223 223 227 236 248 263 278 289 298 307 312 313 315 316 315 315 312 311 311 311 311 307 304 303 299 294 287
249 240 232 221 222 221 220 226 235 245 260 277 290 298 306 313 315 318 315 313 312 312 311 311 311 311 308 307 304 297 293 286
244 239 232 222 220 217 218 223 234 246 260 276 289 302 310 314 316 315 313 313 314 312 312 313 313 311 310 307 302 298 290 286
244 239 230 223 218 215 217 222 232 245 260 277 293 305 311 314 316 316 316 317 317 315 314 316 315 313 312 306 303 303 296 291
247 241 230 224 214 214 217 221 231 245 263 282 297 306 312 316 319 321 321 321 319 318 317 320 319 316 314 305 300 295 290 286
254 241 233 225 212 209 214 221 229 244 266 283 300 310 317 321 325 326 323 323 321 320 320 321 320 322 310 304 299 294 289 288
249 242 235 224 210 206 211 218 229 246 267 292 306 315 322 327 327 326 324 323 321 321 324 324 329 328 314 308 300 298 296 292
246 233 223 217 203 203 207 213 224 241 271 298 312 321 326 327 327 327 325 323 323 324 328 330 333 332 318 315 307 303 296 291
237 224 217 202 196 197 201 208 217 243 281 307 317 324 323 326 327 328 324 324 324 329 334 335 339 334 322 319 314 312 308 304
219 210 201 189 191 193 197 204 214 246 293 309 315 321 324 328 327 328 325 327 331 332 341 345 341 332 323 326 316 309 310 304
207 197 186 184 185 188 193 200 215 259 295 307 317 324 324 328 331 328 328 333 335 339 346 344 341 334 328 326 321 315 310 304
195 184 181 181 182 184 189 195 216 272 296 308 319 325 326 331 332 329 335 340 343 347 342 344 341 334 331 329 324 317 308 302
190 180 179 178 180 184 184 188 209 252 284 304 321 321 326 332 333 336 343 349 348 344 342 343 344 337 338 334 329 323 316 307
184 182 178 178 178 182 183 190 205 218 248 285 307 323 336 339 339 345 351 354 349 341 340 340 342 341 342 338 335 335 334 324
186 186 180 176 178 180 185 195 200 197 218 297 327 344 350 350 348 354 358 354 341 343 342 349 341 344 340 339 338 341 341 342
186 185 181 177 177 180 186 193 193 196 205 327 343 349 348 0 15 1 -0 359 359 352 348 351 346 347 349 349 349 354 355 18
184 182 182 182 178 180 183 192 201 205 199 7 3 359 358 359 8 11 22 9 6 7 10 1 358 0 1 2 11 12 16 23
182 184 184 181 183 181 181 192 204 213 209 34 10 11 6 8 13 11 9 10 17 19 30 23 20 17 14 20 24 29 31 22
184 184 184 183 181 184 183 185 197 202 164 54 27 26 16 19 18 15 13 15 15 18 28 31 24 30 30 30 30 27 26 23
Wind_Speed_850mb
50 56 67 79 91 82 75 66 53 42 37 35 38 44 49 53 58 66 72 76 80 82 83 85 88 89 93 99 102 101 106 92
52 55 65 79 91 86 75 63 49 40 35 36 38 42 47 53 61 67 74 78 81 83 84 87 90 92 98 101 102 102 96 86
53 58 67 81 95 89 73 60 50 41 36 37 38 42 47 54 62 69 77 80 81 83 85 86 89 95 100 104 103 96 90 83
60 67 75 88 97 87 74 62 51 41 36 35 39 43 48 55 62 68 75 78 78 82 85 86 89 97 98 99 100 93 84 82
68 72 75 90 99 85 72 58 48 40 35 34 38 43 50 58 63 68 72 76 79 81 85 85 89 93 95 89 83 82 80 78
73 73 79 87 92 82 69 57 45 36 32 33 36 44 53 59 64 67 70 74 77 83 85 85 88 92 83 75 81 84 85 82
70 70 77 82 97 84 69 55 43 34 30 32 37 45 52 57 61 66 71 73 75 79 83 85 86 83 67 69 78 80 81 82
67 68 72 80 97 82 65 51 38 29 26 30 38 44 49 54 59 62 68 72 75 78 80 83 82 75 66 67 71 74 76 76
56 59 65 72 90 76 61 46 33 25 23 28 37 42 47 51 55 59 65 69 74 76 77 80 79 72 67 69 72 76 77 74
55 61 67 76 86 69 53 39 28 21 21 28 34 38 45 48 52 56 63 67 71 75 76 79 86 73 69 71 75 70 72 70
56 60 65 85 77 61 46 35 25 16 19 26 30 36 42 48 51 54 58 65 72 77 75 83 86 75 69 68 79 79 79 78
58 69 84 82 68 54 43 32 19 12 17 22 27 34 41 42 49 56 55 60 69 78 83 84 79 83 62 74 74 78 79 81
71 85 87 76 64 52 40 26 13 12 16 18 24 31 37 42 47 51 56 63 73 78 83 86 82 72 72 77 72 74 82 85
84 93 85 74 63 55 43 28 16 13 12 14 20 27 33 38 45 49 53 61 72 76 84 91 94 80 82 84 83 81 77 72
96 94 86 73 63 49 37 27 19 12 8 11 14 19 27 36 42 45 52 59 66 72 77 83 88 95 96 97 99 81 75 74
98 92 82 72 59 48 36 25 17 11 6 8 14 19 25 32 37 42 43 43 49 57 61 80 86 87 82 82 81 68 74 57
100 88 75 68 58 44 33 22 15 9 4 4 13 21 25 23 22 32 38 41 41 42 48 60 61 71 74 74 64 59 61 52
95 77 67 62 52 41 29 18 13 9 4 3 10 17 21 27 32 35 28 37 42 44 50 52 58 67 71 72 60 59 65 77
96 83 76 62 50 42 30 21 14 10 3 3 8 13 18 23 30 36 41 44 41 43 55 63 65 66 69 80 81 87 88 88
88 82 76 69 58 45 35 25 18 11 4 4 7 10 14 21 27 31 34 37 43 44 47 61 62 71 78 86 96 98 96 93
Wind_Direction_850mb
240 240 238 228 223 224 226 230 235 246 261 276 290 299 307 313 316 314 315 317 316 317 314 312 310 309 307 305 303 300 297 287
242 247 237 226 221 223 223 227 236 248 263 278 289 298 307 312 313 315 316 315 315 312 311 311 311 311 307 304 303 299 294 287
249 240 232 221 222 221 220 226 235 245 260 277 290 298 306 313 315 318 315 313 312 312 311 311 311 311 308 307 304 297 293 286
244 239 232 222 220 217 218 223 234 246 260 276 289 302 310 314 316 315 313 313 314 312 312 313 313 311 310 307 302 298 290 286
244 239 230 223 218 215 217 222 232 245 260 277 293 305 311 314 316 316 316 317 317 315 314 316 315 313 312 306 303 303 296 291
247 241 230 224 214 214 217 221 231 245 263 282 297 306 312 316 319 321 321 321 319 318 317 320 319 316 314 305 300 295 290 286
254 241 233 225 212 209 214 221 229 244 266 283 300 310 317 321 325 326 323 323 321 320 320 321 320 322 310 304 299 294 289 288
249 242 235 224 210 206 211 218 229 246 267 292 306 315 322 327 327 326 324 323 321 321 324 324 329 328 314 308 300 298 296 292
246 233 223 217 203 203 207 213 224 241 271 298 312 321 326 327 327 327 325 323 323 324 328 330 333 332 318 315 307 303 296 291
237 224 217 202 196 197 201 208 217 243 281 307 317 324 323 326 327 328 324 324 324 329 334 335 339 334 322 319 314 312 308 304
219 210 201 189 191 193 197 204 214 246 293 309 315 321 324 328 327 328 325 327 331 332 341 345 341 332 323 326 316 309 310 304
207 197 186 184 185 188 193 200 215 259 295 307 317 324 324 328 331 328 328 333 335 339 346 344 341 334 328 326 321 315 310 304
195 184 181 181 182 184 189 195 216 272 296 308 319 325 326 331 332 329 335 340 343 347 342 344 341 334 331 329 324 317 308 302
190 180 179 178 180 184 184 188 209 252 284 304 321 321 326 332 333 336 343 349 348 344 342 343 344 337 338 334 329 323 316 307
184 182 178 178 178 182 183 190 205 218 248 285 307 323 336 339 339 345 351 354 349 341 340 340 342 341 342 338 335 335 334 324
186 186 180 176 178 180 185 195 200 197 218 297 327 344 350 350 348 354 358 354 341 343 342 349 341 344 340 339 338 341 341 342
186 185 181 177 177 180 186 193 193 196 205 327 343 349 348 0 15 1 -0 359 359 352 348 351 346 347 349 349 349 354 355 18
184 182 182 182 178 180 183 192 201 205 199 7 3 359 358 359 8 11 22 9 6 7 10 1 358 0 1 2 11 12 16 23
182 184 184 181 183 181 181 192 204 213 209 34 10 11 6 8 13 11 9 10 17 19 30 23 20 17 14 20 24 29 31 22
184 184 184 183 181 184 183 185 197 202 164 54 27 26 16 19 18 15 13 15 15 18 28 31 24 30 30 30 30 27 26 23